Time,TemperatureF,DewpointF,PressureIn,WindDirection,WindDirectionDegrees,WindSpeedMPH,WindSpeedGustMPH,Humidity,HourlyPrecipIn,Conditions,Clouds,dailyrainin,SoftwareType,DateUTC
2013-02-17 00:03:00,41.4,38.7,30.18,ESE,117,0.0,4.0,90,0.00,,---,0.00,VWS V14.01,2013-02-17 08:03:00,
2013-02-17 00:07:00,41.3,38.6,30.18,ESE,109,2.0,4.0,90,0.00,,---,0.00,VWS V14.01,2013-02-17 08:07:00,
2013-02-17 00:13:00,41.3,38.6,30.19,SE,143,2.0,4.0,90,0.00,,---,0.00,VWS V14.01,2013-02-17 08:13:00,
2013-02-17 00:18:00,41.3,38.6,30.19,SE,140,0.0,4.0,90,0.00,,---,0.00,VWS V14.01,2013-02-17 08:18:00,
2013-02-17 00:23:00,41.3,38.6,30.19,SE,140,0.0,4.0,90,0.00,,---,0.00,VWS V14.01,2013-02-17 08:23:00,
2013-02-17 00:28:00,41.3,38.6,30.19,ESE,107,1.0,5.0,90,0.00,,---,0.00,VWS V14.01,2013-02-17 08:28:00,
2013-02-17 00:33:00,41.5,38.8,30.19,ESE,119,0.0,4.0,90,0.00,,---,0.00,VWS V14.01,2013-02-17 08:33:00,
2013-02-17 00:38:00,41.5,38.8,30.19,ESE,118,2.0,4.0,90,0.00,,---,0.00,VWS V14.01,2013-02-17 08:38:00,
2013-02-17 00:43:00,41.5,38.8,30.19,East,98,0.0,4.0,90,0.00,,---,0.00,VWS V14.01,2013-02-17 08:43:00,
2013-02-17 00:48:00,41.4,38.7,30.19,ESE,107,0.0,4.0,90,0.00,,---,0.00,VWS V14.01,2013-02-17 08:48:00,
2013-02-17 00:53:00,41.4,38.7,30.19,SE,134,0.0,4.0,90,0.00,,---,0.00,VWS V14.01,2013-02-17 08:53:00,
2013-02-17 00:58:00,41.5,38.5,30.19,SE,124,1.0,6.0,89,0.00,,---,0.00,VWS V14.01,2013-02-17 08:58:00,
2013-02-17 01:03:00,41.6,38.9,30.20,East,96,1.0,4.0,90,0.00,,---,0.00,VWS V14.01,2013-02-17 09:03:00,
2013-02-17 01:08:00,41.6,38.6,30.20,SE,127,3.0,5.0,89,0.00,,---,0.00,VWS V14.01,2013-02-17 09:08:00,
2013-02-17 01:13:00,41.5,38.8,30.20,ESE,114,2.0,5.0,90,0.00,,---,0.00,VWS V14.01,2013-02-17 09:13:00,
2013-02-17 01:18:00,41.5,38.5,30.20,ESE,110,2.0,5.0,89,0.00,,---,0.00,VWS V14.01,2013-02-17 09:18:00,
2013-02-17 01:23:00,41.4,38.4,30.20,ESE,108,1.0,6.0,89,0.00,,---,0.00,VWS V14.01,2013-02-17 09:23:00,
2013-02-17 01:28:00,41.4,38.4,30.20,ESE,123,1.0,6.0,89,0.00,,---,0.00,VWS V14.01,2013-02-17 09:28:00,
2013-02-17 01:33:00,41.3,38.3,30.20,ESE,110,1.0,4.0,89,0.00,,---,0.00,VWS V14.01,2013-02-17 09:33:00,
2013-02-17 01:38:00,41.3,38.3,30.20,SE,142,0.0,4.0,89,0.00,,---,0.00,VWS V14.01,2013-02-17 09:38:00,
2013-02-17 01:43:00,41.1,38.1,30.20,ESE,119,0.0,5.0,89,0.00,,---,0.00,VWS V14.01,2013-02-17 09:43:00,
2013-02-17 01:49:00,41.1,38.1,30.20,ESE,117,0.0,5.0,89,0.00,,---,0.00,VWS V14.01,2013-02-17 09:49:00,
2013-02-17 01:54:00,41.1,38.1,30.21,ESE,114,0.0,5.0,89,0.00,,---,0.00,VWS V14.01,2013-02-17 09:54:00,
2013-02-17 01:59:00,41.2,37.9,30.21,ESE,119,1.0,5.0,88,0.00,,---,0.00,VWS V14.01,2013-02-17 09:59:00,
2013-02-17 02:04:00,41.2,38.2,30.21,ESE,115,0.0,2.0,89,0.00,,---,0.00,VWS V14.01,2013-02-17 10:04:00,
2013-02-17 02:09:00,41.2,37.9,30.21,SSE,163,0.0,4.0,88,0.00,,---,0.00,VWS V14.01,2013-02-17 10:09:00,
2013-02-17 02:14:00,41.1,37.8,30.21,ESE,111,1.0,4.0,88,0.00,,---,0.00,VWS V14.01,2013-02-17 10:14:00,
2013-02-17 02:19:00,41.1,37.8,30.21,ESE,118,2.0,6.0,88,0.00,,---,0.00,VWS V14.01,2013-02-17 10:19:00,
2013-02-17 02:24:00,41.1,37.8,30.21,SSE,147,0.0,6.0,88,0.00,,---,0.00,VWS V14.01,2013-02-17 10:24:00,
2013-02-17 02:29:00,41.1,37.8,30.21,ESE,108,0.0,6.0,88,0.00,,---,0.00,VWS V14.01,2013-02-17 10:29:00,
2013-02-17 02:34:00,41.1,37.8,30.21,SE,141,0.0,3.0,88,0.00,,---,0.00,VWS V14.01,2013-02-17 10:34:00,
2013-02-17 02:39:00,41.1,37.8,30.21,East,99,4.0,4.0,88,0.00,,---,0.00,VWS V14.01,2013-02-17 10:39:00,
2013-02-17 02:44:00,41.1,37.8,30.20,SE,126,1.0,4.0,88,0.00,,---,0.00,VWS V14.01,2013-02-17 10:44:00,
2013-02-17 02:49:00,41.1,37.8,30.21,South,182,0.0,4.0,88,0.00,,---,0.00,VWS V14.01,2013-02-17 10:49:00,
2013-02-17 02:54:00,41.1,37.8,30.20,SE,130,0.0,4.0,88,0.00,,---,0.00,VWS V14.01,2013-02-17 10:54:00,
2013-02-17 02:59:00,41.1,37.8,30.21,SE,128,0.0,4.0,88,0.00,,---,0.00,VWS V14.01,2013-02-17 10:59:00,
2013-02-17 03:04:00,41.1,37.8,30.21,ESE,116,2.0,3.0,88,0.00,,---,0.00,VWS V14.01,2013-02-17 11:04:00,
2013-02-17 03:10:00,41.1,37.8,30.20,SE,145,0.0,5.0,88,0.00,,---,0.00,VWS V14.01,2013-02-17 11:10:00,
2013-02-17 03:15:00,41.1,37.8,30.20,ESE,119,0.0,5.0,88,0.00,,---,0.00,VWS V14.01,2013-02-17 11:15:00,
2013-02-17 03:20:00,41.1,37.8,30.20,ESE,105,0.0,5.0,88,0.00,,---,0.00,VWS V14.01,2013-02-17 11:20:00,
2013-02-17 03:25:00,41.0,37.7,30.20,ESE,107,1.0,5.0,88,0.00,,---,0.00,VWS V14.01,2013-02-17 11:25:00,
2013-02-17 03:30:00,41.0,37.7,30.20,SSE,148,0.0,5.0,88,0.00,,---,0.00,VWS V14.01,2013-02-17 11:30:00,
2013-02-17 03:35:00,41.0,37.7,30.21,SSE,152,1.0,4.0,88,0.00,,---,0.00,VWS V14.01,2013-02-17 11:35:00,
2013-02-17 03:40:00,41.1,37.8,30.21,SE,130,0.0,4.0,88,0.00,,---,0.00,VWS V14.01,2013-02-17 11:40:00,
2013-02-17 03:45:00,41.1,37.8,30.21,SE,129,2.0,4.0,88,0.00,,---,0.00,VWS V14.01,2013-02-17 11:45:00,
2013-02-17 03:50:00,41.1,37.5,30.21,South,171,1.0,6.0,87,0.00,,---,0.00,VWS V14.01,2013-02-17 11:50:00,
2013-02-17 03:55:00,41.1,37.5,30.21,SSE,152,1.0,6.0,87,0.00,,---,0.00,VWS V14.01,2013-02-17 11:55:00,
2013-02-17 04:00:00,41.1,37.5,30.20,South,190,1.0,7.0,87,0.00,,---,0.00,VWS V14.01,2013-02-17 12:00:00,
2013-02-17 04:05:00,41.0,37.4,30.20,SE,137,0.0,7.0,87,0.00,,---,0.00,VWS V14.01,2013-02-17 12:05:00,
2013-02-17 04:10:00,41.0,37.4,30.21,SE,140,0.0,7.0,87,0.00,,---,0.00,VWS V14.01,2013-02-17 12:10:00,
2013-02-17 04:15:00,41.0,37.4,30.21,SE,134,0.0,7.0,87,0.00,,---,0.00,VWS V14.01,2013-02-17 12:15:00,
2013-02-17 04:20:00,41.0,37.4,30.21,South,178,0.0,7.0,87,0.00,,---,0.00,VWS V14.01,2013-02-17 12:20:00,
2013-02-17 04:25:00,41.0,37.4,30.21,SSE,149,2.0,9.0,87,0.00,,---,0.00,VWS V14.01,2013-02-17 12:25:00,
2013-02-17 04:30:00,41.0,37.4,30.21,SSE,149,0.0,0.0,87,0.00,,---,0.00,VWS V14.01,2013-02-17 12:30:00,
2013-02-17 04:36:00,41.0,37.4,30.21,SSE,149,0.0,2.0,87,0.00,,---,0.00,VWS V14.01,2013-02-17 12:36:00,
2013-02-17 04:41:00,41.0,37.4,30.21,ESE,107,1.0,4.0,87,0.00,,---,0.00,VWS V14.01,2013-02-17 12:41:00,
2013-02-17 04:46:00,41.0,37.4,30.21,ESE,105,1.0,4.0,87,0.00,,---,0.00,VWS V14.01,2013-02-17 12:46:00,
2013-02-17 04:51:00,40.9,37.3,30.21,SE,127,0.0,4.0,87,0.00,,---,0.00,VWS V14.01,2013-02-17 12:51:00,
2013-02-17 04:56:00,40.9,37.3,30.20,ESE,109,0.0,4.0,87,0.00,,---,0.00,VWS V14.01,2013-02-17 12:56:00,
2013-02-17 05:01:00,40.9,37.3,30.21,SE,138,0.0,3.0,87,0.00,,---,0.00,VWS V14.01,2013-02-17 13:01:00,
2013-02-17 05:06:00,40.9,37.3,30.20,ESE,119,0.0,3.0,87,0.00,,---,0.00,VWS V14.01,2013-02-17 13:06:00,
2013-02-17 05:11:00,40.8,37.2,30.21,SSE,160,1.0,4.0,87,0.00,,---,0.00,VWS V14.01,2013-02-17 13:11:00,
2013-02-17 05:16:00,40.8,36.9,30.21,SSE,150,0.0,7.0,86,0.00,,---,0.00,VWS V14.01,2013-02-17 13:16:00,
2013-02-17 05:21:00,40.8,36.9,30.21,ESE,103,0.0,7.0,86,0.00,,---,0.00,VWS V14.01,2013-02-17 13:21:00,
2013-02-17 05:26:00,40.8,37.2,30.21,SSE,163,0.0,7.0,87,0.00,,---,0.00,VWS V14.01,2013-02-17 13:26:00,
2013-02-17 05:31:00,40.8,36.9,30.21,ESE,103,1.0,1.0,86,0.00,,---,0.00,VWS V14.01,2013-02-17 13:31:00,
2013-02-17 05:36:00,40.8,36.9,30.21,ESE,109,3.0,5.0,86,0.00,,---,0.00,VWS V14.01,2013-02-17 13:36:00,
2013-02-17 05:41:00,40.8,36.9,30.22,SE,142,1.0,5.0,86,0.00,,---,0.00,VWS V14.01,2013-02-17 13:41:00,
2013-02-17 05:46:00,40.8,36.9,30.22,SSE,165,0.0,5.0,86,0.00,,---,0.00,VWS V14.01,2013-02-17 13:46:00,
2013-02-17 05:51:00,40.8,36.9,30.22,SE,146,4.0,5.0,86,0.00,,---,0.00,VWS V14.01,2013-02-17 13:51:00,
2013-02-17 05:56:00,40.8,36.7,30.22,SSE,149,0.0,6.0,85,0.00,,---,0.00,VWS V14.01,2013-02-17 13:56:00,
2013-02-17 06:01:00,40.8,36.7,30.22,SE,138,1.0,3.0,85,0.00,,---,0.00,VWS V14.01,2013-02-17 14:01:00,
2013-02-17 06:07:00,40.7,36.5,30.22,ESE,116,0.0,5.0,85,0.00,,---,0.00,VWS V14.01,2013-02-17 14:07:00,
2013-02-17 06:12:00,40.7,36.5,30.22,SE,136,1.0,5.0,85,0.00,,---,0.00,VWS V14.01,2013-02-17 14:12:00,
2013-02-17 06:17:00,40.7,36.5,30.21,ESE,123,4.0,6.0,85,0.00,,---,0.00,VWS V14.01,2013-02-17 14:17:00,
2013-02-17 06:22:00,40.7,36.8,30.21,SE,130,0.0,6.0,86,0.00,,---,0.00,VWS V14.01,2013-02-17 14:22:00,
2013-02-17 06:27:00,40.6,36.5,30.21,ESE,123,2.0,6.0,85,0.00,,---,0.00,VWS V14.01,2013-02-17 14:27:00,
2013-02-17 06:32:00,40.6,36.8,30.21,SE,128,2.0,3.0,86,0.00,,---,0.00,VWS V14.01,2013-02-17 14:32:00,
2013-02-17 06:37:00,40.6,36.8,30.21,SSE,159,1.0,6.0,86,0.00,,---,0.00,VWS V14.01,2013-02-17 14:37:00,
2013-02-17 06:42:00,40.6,36.8,30.21,ESE,106,4.0,6.0,86,0.00,,---,0.00,VWS V14.01,2013-02-17 14:42:00,
2013-02-17 06:47:00,40.6,36.5,30.20,ESE,118,0.0,6.0,85,0.00,,---,0.00,VWS V14.01,2013-02-17 14:47:00,
2013-02-17 06:52:00,40.6,36.5,30.20,ESE,109,3.0,7.0,85,0.00,,---,0.00,VWS V14.01,2013-02-17 14:52:00,
2013-02-17 06:57:00,40.6,36.5,30.20,ESE,109,3.0,9.0,85,0.00,,---,0.00,VWS V14.01,2013-02-17 14:57:00,
2013-02-17 07:02:00,40.5,36.3,30.20,SSE,164,1.0,5.0,85,0.00,,---,0.00,VWS V14.01,2013-02-17 15:02:00,
2013-02-17 07:07:00,40.5,36.7,30.20,SSE,153,1.0,5.0,86,0.00,,---,0.00,VWS V14.01,2013-02-17 15:07:00,
2013-02-17 07:12:00,40.5,36.7,30.20,ESE,113,2.0,6.0,86,0.00,,---,0.00,VWS V14.01,2013-02-17 15:12:00,
2013-02-17 07:18:00,40.5,36.7,30.21,SSE,165,0.0,6.0,86,0.00,,---,0.00,VWS V14.01,2013-02-17 15:18:00,
2013-02-17 07:23:00,40.5,36.7,30.21,SSE,165,0.0,6.0,86,0.00,,---,0.00,VWS V14.01,2013-02-17 15:23:00,
2013-02-17 07:28:00,40.5,36.7,30.21,ESE,122,0.0,6.0,86,0.00,,---,0.00,VWS V14.01,2013-02-17 15:28:00,
2013-02-17 07:33:00,40.5,36.7,30.21,SSE,157,0.0,3.0,86,0.00,,---,0.00,VWS V14.01,2013-02-17 15:33:00,
2013-02-17 07:38:00,40.5,36.7,30.21,SE,144,3.0,6.0,86,0.00,,---,0.00,VWS V14.01,2013-02-17 15:38:00,
2013-02-17 07:43:00,40.4,36.5,30.21,SSE,153,1.0,6.0,86,0.00,,---,0.00,VWS V14.01,2013-02-17 15:43:00,
2013-02-17 07:48:00,40.5,36.7,30.21,SE,136,0.0,7.0,86,0.00,,---,0.00,VWS V14.01,2013-02-17 15:48:00,
2013-02-17 07:53:00,40.4,36.5,30.21,ESE,107,1.0,7.0,86,0.00,,---,0.00,VWS V14.01,2013-02-17 15:53:00,
2013-02-17 07:58:00,40.4,36.5,30.22,ESE,113,1.0,7.0,86,0.00,,---,0.00,VWS V14.01,2013-02-17 15:58:00,
2013-02-17 08:03:00,40.4,36.5,30.22,SSE,155,6.0,6.0,86,0.00,,---,0.00,VWS V14.01,2013-02-17 16:03:00,
2013-02-17 08:08:00,40.5,36.7,30.22,SSE,165,3.0,6.0,86,0.00,,---,0.00,VWS V14.01,2013-02-17 16:08:00,
2013-02-17 08:13:00,40.5,36.7,30.22,SSE,157,0.0,6.0,86,0.00,,---,0.00,VWS V14.01,2013-02-17 16:13:00,
2013-02-17 08:18:00,40.5,36.7,30.23,SSE,167,0.0,6.0,86,0.00,,---,0.00,VWS V14.01,2013-02-17 16:18:00,
2013-02-17 08:24:00,40.6,36.8,30.22,SSE,157,3.0,6.0,86,0.00,,---,0.00,VWS V14.01,2013-02-17 16:24:00,
2013-02-17 08:29:00,40.6,36.8,30.22,SSE,163,0.0,6.0,86,0.00,,---,0.00,VWS V14.01,2013-02-17 16:29:00,
2013-02-17 08:34:00,40.6,36.8,30.22,ESE,122,0.0,2.0,86,0.00,,---,0.00,VWS V14.01,2013-02-17 16:34:00,
2013-02-17 08:39:00,40.6,36.8,30.22,SSE,162,0.0,3.0,86,0.00,,---,0.00,VWS V14.01,2013-02-17 16:39:00,
2013-02-17 08:44:00,40.6,36.8,30.22,East,92,3.0,4.0,86,0.00,,---,0.00,VWS V14.01,2013-02-17 16:44:00,
2013-02-17 08:49:00,40.6,36.8,30.22,East,95,1.0,4.0,86,0.00,,---,0.00,VWS V14.01,2013-02-17 16:49:00,
2013-02-17 08:54:00,40.6,36.8,30.22,SE,140,0.0,4.0,86,0.00,,---,0.00,VWS V14.01,2013-02-17 16:54:00,
2013-02-17 08:59:00,40.6,36.8,30.22,SE,136,6.0,7.0,86,0.00,,---,0.00,VWS V14.01,2013-02-17 16:59:00,
2013-02-17 09:04:00,40.6,37.0,30.22,ESE,108,0.0,4.0,87,0.00,,---,0.00,VWS V14.01,2013-02-17 17:04:00,
2013-02-17 09:09:00,40.5,36.9,30.23,ESE,107,0.0,5.0,87,0.00,,---,0.00,VWS V14.01,2013-02-17 17:09:00,
2013-02-17 09:14:00,40.5,36.9,30.23,ESE,108,0.0,6.0,87,0.00,,---,0.00,VWS V14.01,2013-02-17 17:14:00,
2013-02-17 09:19:00,40.5,36.7,30.23,ESE,113,0.0,7.0,86,0.00,,---,0.00,VWS V14.01,2013-02-17 17:19:00,
2013-02-17 09:24:00,40.5,36.7,30.23,SSE,152,1.0,7.0,86,0.00,,---,0.00,VWS V14.01,2013-02-17 17:24:00,
2013-02-17 09:29:00,40.6,36.8,30.23,ESE,121,0.0,7.0,86,0.00,,---,0.00,VWS V14.01,2013-02-17 17:29:00,
2013-02-17 09:35:00,40.7,36.8,30.23,East,98,2.0,2.0,86,0.00,,---,0.00,VWS V14.01,2013-02-17 17:35:00,
2013-02-17 09:40:00,40.7,36.8,30.23,SSE,157,2.0,4.0,86,0.00,,---,0.00,VWS V14.01,2013-02-17 17:40:00,
2013-02-17 09:45:00,40.8,36.9,30.23,SSE,159,1.0,4.0,86,0.00,,---,0.00,VWS V14.01,2013-02-17 17:45:00,
2013-02-17 09:50:00,40.7,36.8,30.23,SSE,150,0.0,5.0,86,0.00,,---,0.00,VWS V14.01,2013-02-17 17:50:00,
2013-02-17 09:55:00,40.7,37.1,30.23,ESE,102,1.0,5.0,87,0.00,,---,0.00,VWS V14.01,2013-02-17 17:55:00,
2013-02-17 10:00:00,40.7,37.4,30.23,SSE,167,3.0,5.0,88,0.00,,---,0.00,VWS V14.01,2013-02-17 18:00:00,
2013-02-17 10:05:00,40.6,37.3,30.23,SE,134,0.0,4.0,88,0.00,,---,0.00,VWS V14.01,2013-02-17 18:05:00,
2013-02-17 10:10:00,40.6,37.6,30.23,SSE,148,2.0,4.0,89,0.00,,---,0.00,VWS V14.01,2013-02-17 18:10:00,
2013-02-17 10:15:00,40.5,37.5,30.23,SSE,163,0.0,6.0,89,0.00,,---,0.00,VWS V14.01,2013-02-17 18:15:00,
2013-02-17 10:20:00,40.4,37.7,30.24,SE,127,0.0,6.0,90,0.00,,---,0.00,VWS V14.01,2013-02-17 18:20:00,
2013-02-17 10:25:00,40.4,37.7,30.24,SE,144,1.0,6.0,90,0.00,,---,0.00,VWS V14.01,2013-02-17 18:25:00,
2013-02-17 10:30:00,40.2,37.8,30.24,South,169,1.0,6.0,91,0.00,,---,0.00,VWS V14.01,2013-02-17 18:30:00,
2013-02-17 10:35:00,40.2,37.8,30.24,East,101,0.0,3.0,91,0.00,,---,0.00,VWS V14.01,2013-02-17 18:35:00,
2013-02-17 10:40:00,40.1,37.7,30.23,SSE,167,0.0,3.0,91,0.00,,---,0.00,VWS V14.01,2013-02-17 18:40:00,
2013-02-17 10:45:00,40.2,37.8,30.24,SE,144,0.0,3.0,91,0.00,,---,0.00,VWS V14.01,2013-02-17 18:45:00,
2013-02-17 10:50:00,40.3,38.2,30.23,SE,132,0.0,3.0,92,0.00,,---,0.00,VWS V14.01,2013-02-17 18:50:00,
2013-02-17 10:55:00,40.5,38.4,30.23,SE,132,0.0,3.0,92,0.00,,---,0.00,VWS V14.01,2013-02-17 18:55:00,
2013-02-17 11:01:00,40.7,38.6,30.23,SW,225,0.0,0.0,92,0.00,,---,0.00,VWS V14.01,2013-02-17 19:01:00,
2013-02-17 11:06:00,40.6,38.5,30.23,SSE,151,0.0,2.0,92,0.00,,---,0.00,VWS V14.01,2013-02-17 19:06:00,
2013-02-17 11:11:00,40.5,38.4,30.23,SE,126,0.0,4.0,92,0.00,,---,0.00,VWS V14.01,2013-02-17 19:11:00,
2013-02-17 11:16:00,40.4,38.3,30.23,SE,144,0.0,4.0,92,0.00,,---,0.00,VWS V14.01,2013-02-17 19:16:00,
2013-02-17 11:21:00,40.4,38.5,30.23,SE,142,0.0,4.0,93,0.00,,---,0.00,VWS V14.01,2013-02-17 19:21:00,
2013-02-17 11:26:00,40.6,38.7,30.23,SE,142,0.0,4.0,93,0.01,,---,0.01,VWS V14.01,2013-02-17 19:26:00,
2013-02-17 11:31:00,40.8,38.9,30.23,SE,141,0.0,1.0,93,0.01,,---,0.01,VWS V14.01,2013-02-17 19:31:00,
2013-02-17 11:36:00,40.8,38.9,30.23,SE,141,2.0,2.0,93,0.01,,---,0.01,VWS V14.01,2013-02-17 19:36:00,
2013-02-17 11:41:00,40.6,38.7,30.23,SE,141,0.0,2.0,93,0.01,,---,0.01,VWS V14.01,2013-02-17 19:41:00,
2013-02-17 11:46:00,40.7,38.8,30.23,SE,142,0.0,2.0,93,0.01,,---,0.01,VWS V14.01,2013-02-17 19:46:00,
2013-02-17 11:51:00,40.8,39.2,30.23,SE,142,0.0,2.0,94,0.01,,---,0.01,VWS V14.01,2013-02-17 19:51:00,
2013-02-17 11:56:00,41.0,39.4,30.23,SE,142,0.0,2.0,94,0.01,,---,0.01,VWS V14.01,2013-02-17 19:56:00,
2013-02-17 12:01:00,41.1,39.2,30.22,SE,142,1.0,1.0,93,0.02,,---,0.02,VWS V14.01,2013-02-17 20:01:00,
2013-02-17 12:06:00,41.1,39.2,30.22,SW,230,0.0,3.0,93,0.02,,---,0.02,VWS V14.01,2013-02-17 20:06:00,
2013-02-17 12:11:00,41.1,39.2,30.22,SSW,202,0.0,3.0,93,0.02,,---,0.02,VWS V14.01,2013-02-17 20:11:00,
2013-02-17 12:16:00,41.1,39.2,30.22,SSW,202,0.0,3.0,93,0.02,,---,0.02,VWS V14.01,2013-02-17 20:16:00,
2013-02-17 12:21:00,41.1,39.2,30.22,SSW,202,0.0,3.0,93,0.02,,---,0.02,VWS V14.01,2013-02-17 20:21:00,
2013-02-17 12:26:00,41.2,39.1,30.22,SSW,202,0.0,3.0,92,0.02,,---,0.02,VWS V14.01,2013-02-17 20:26:00,
2013-02-17 12:32:00,41.3,39.2,30.22,SSW,202,0.0,0.0,92,0.01,,---,0.02,VWS V14.01,2013-02-17 20:32:00,
2013-02-17 12:37:00,41.3,39.2,30.21,SE,136,0.0,4.0,92,0.01,,---,0.02,VWS V14.01,2013-02-17 20:37:00,
2013-02-17 12:42:00,41.5,39.3,30.21,SE,136,0.0,4.0,92,0.01,,---,0.02,VWS V14.01,2013-02-17 20:42:00,
2013-02-17 12:47:00,41.7,39.5,30.21,SE,136,0.0,4.0,92,0.01,,---,0.02,VWS V14.01,2013-02-17 20:47:00,
2013-02-17 12:52:00,42.0,39.6,30.21,SW,229,0.0,4.0,91,0.01,,---,0.02,VWS V14.01,2013-02-17 20:52:00,
2013-02-17 12:57:00,42.2,39.8,30.21,SW,229,2.0,4.0,91,0.01,,---,0.02,VWS V14.01,2013-02-17 20:57:00,
2013-02-17 13:02:00,42.3,39.6,30.21,SW,219,1.0,1.0,90,0.01,,---,0.02,VWS V14.01,2013-02-17 21:02:00,
2013-02-17 13:07:00,42.3,39.6,30.21,SW,219,0.0,2.0,90,0.01,,---,0.02,VWS V14.01,2013-02-17 21:07:00,
2013-02-17 13:12:00,42.3,39.6,30.21,SW,219,0.0,2.0,90,0.01,,---,0.02,VWS V14.01,2013-02-17 21:12:00,
2013-02-17 13:17:00,42.3,39.6,30.21,SW,219,0.0,2.0,90,0.02,,---,0.03,VWS V14.01,2013-02-17 21:17:00,
2013-02-17 13:22:00,42.3,39.6,30.21,SW,219,1.0,2.0,90,0.02,,---,0.03,VWS V14.01,2013-02-17 21:22:00,
2013-02-17 13:27:00,42.4,39.7,30.20,SW,219,0.0,3.0,90,0.02,,---,0.03,VWS V14.01,2013-02-17 21:27:00,
2013-02-17 13:32:00,42.7,40.3,30.20,SW,219,0.0,1.0,91,0.01,,---,0.03,VWS V14.01,2013-02-17 21:32:00,
2013-02-17 13:37:00,42.9,40.2,30.20,SW,231,2.0,5.0,90,0.01,,---,0.03,VWS V14.01,2013-02-17 21:37:00,
2013-02-17 13:42:00,43.0,40.3,30.20,WSW,248,0.0,5.0,90,0.01,,---,0.03,VWS V14.01,2013-02-17 21:42:00,
2013-02-17 13:47:00,43.2,40.2,30.20,WSW,248,0.0,5.0,89,0.01,,---,0.03,VWS V14.01,2013-02-17 21:47:00,
2013-02-17 13:53:00,43.3,40.3,30.20,WSW,248,0.0,5.0,89,0.01,,---,0.03,VWS V14.01,2013-02-17 21:53:00,
2013-02-17 13:58:00,43.4,40.1,30.20,WSW,248,0.0,5.0,88,0.01,,---,0.03,VWS V14.01,2013-02-17 21:58:00,
2013-02-17 14:03:00,43.5,39.9,30.20,WSW,248,0.0,1.0,87,0.01,,---,0.03,VWS V14.01,2013-02-17 22:03:00,
2013-02-17 14:08:00,43.6,40.0,30.20,WSW,248,0.0,2.0,87,0.01,,---,0.03,VWS V14.01,2013-02-17 22:08:00,
2013-02-17 14:13:00,43.9,40.6,30.20,WSW,248,1.0,2.0,88,0.01,,---,0.03,VWS V14.01,2013-02-17 22:13:00,
2013-02-17 14:18:00,44.0,40.1,30.19,WSW,248,0.0,3.0,86,0.01,,---,0.03,VWS V14.01,2013-02-17 22:18:00,
2013-02-17 14:23:00,44.2,40.6,30.19,WSW,258,1.0,3.0,87,0.01,,---,0.03,VWS V14.01,2013-02-17 22:23:00,
2013-02-17 14:28:00,44.3,40.4,30.19,West,265,1.0,4.0,86,0.01,,---,0.03,VWS V14.01,2013-02-17 22:28:00,
2013-02-17 14:33:00,44.6,40.7,30.19,West,265,0.0,2.0,86,0.00,,---,0.03,VWS V14.01,2013-02-17 22:33:00,
2013-02-17 14:38:00,44.5,40.0,30.19,SW,232,1.0,5.0,84,0.00,,---,0.03,VWS V14.01,2013-02-17 22:38:00,
2013-02-17 14:43:00,44.7,40.2,30.19,SW,235,0.0,6.0,84,0.00,,---,0.03,VWS V14.01,2013-02-17 22:43:00,
2013-02-17 14:48:00,44.9,40.4,30.19,SW,227,3.0,6.0,84,0.00,,---,0.03,VWS V14.01,2013-02-17 22:48:00,
2013-02-17 14:53:00,44.9,40.1,30.19,SW,232,3.0,6.0,83,0.00,,---,0.03,VWS V14.01,2013-02-17 22:53:00,
2013-02-17 14:58:00,44.8,39.7,30.19,SW,234,1.0,6.0,82,0.00,,---,0.03,VWS V14.01,2013-02-17 22:58:00,
2013-02-17 15:03:00,44.9,39.8,30.19,SW,225,1.0,5.0,82,0.00,,---,0.03,VWS V14.01,2013-02-17 23:03:00,
2013-02-17 15:09:00,45.0,39.8,30.19,SW,234,0.0,5.0,82,0.00,,---,0.03,VWS V14.01,2013-02-17 23:09:00,
2013-02-17 15:14:00,45.0,39.8,30.19,SW,214,5.0,6.0,82,0.00,,---,0.03,VWS V14.01,2013-02-17 23:14:00,
2013-02-17 15:19:00,44.5,39.7,30.19,West,263,2.0,9.0,83,0.00,,---,0.03,VWS V14.01,2013-02-17 23:19:00,
2013-02-17 15:24:00,44.5,39.7,30.19,SSW,195,0.0,9.0,83,0.00,,---,0.03,VWS V14.01,2013-02-17 23:24:00,
2013-02-17 15:29:00,44.6,39.5,30.19,South,188,0.0,9.0,82,0.00,,---,0.03,VWS V14.01,2013-02-17 23:29:00,
2013-02-17 15:34:00,44.9,39.1,30.18,South,182,0.0,4.0,80,0.00,,---,0.03,VWS V14.01,2013-02-17 23:34:00,
2013-02-17 15:39:00,45.1,38.3,30.18,SSE,157,0.0,4.0,77,0.00,,---,0.03,VWS V14.01,2013-02-17 23:39:00,
2013-02-17 15:44:00,45.5,38.0,30.18,SE,141,0.0,4.0,75,0.00,,---,0.03,VWS V14.01,2013-02-17 23:44:00,
2013-02-17 15:49:00,45.7,37.2,30.17,ESE,113,4.0,4.0,72,0.00,,---,0.03,VWS V14.01,2013-02-17 23:49:00,
2013-02-17 15:54:00,45.6,36.8,30.17,ESE,114,2.0,4.0,71,0.00,,---,0.03,VWS V14.01,2013-02-17 23:54:00,
2013-02-17 15:59:00,45.5,36.3,30.17,ESE,114,5.0,5.0,70,0.00,,---,0.03,VWS V14.01,2013-02-17 23:59:00,
2013-02-17 16:04:00,45.5,36.7,30.17,ESE,115,3.0,4.0,71,0.00,,---,0.03,VWS V14.01,2013-02-18 00:04:00,
2013-02-17 16:09:00,45.8,37.3,30.17,ESE,116,1.0,4.0,72,0.00,,---,0.03,VWS V14.01,2013-02-18 00:09:00,
2013-02-17 16:14:00,45.8,37.3,30.17,ESE,115,0.0,4.0,72,0.00,,---,0.03,VWS V14.01,2013-02-18 00:14:00,
2013-02-17 16:19:00,45.8,37.0,30.17,SE,145,0.0,4.0,71,0.00,,---,0.03,VWS V14.01,2013-02-18 00:19:00,
2013-02-17 16:25:00,46.0,37.5,30.17,SE,145,0.0,4.0,72,0.00,,---,0.03,VWS V14.01,2013-02-18 00:25:00,
2013-02-17 16:30:00,46.0,37.1,30.16,ESE,114,1.0,4.0,71,0.00,,---,0.03,VWS V14.01,2013-02-18 00:30:00,
2013-02-17 16:35:00,46.0,37.5,30.16,ESE,115,1.0,1.0,72,0.00,,---,0.03,VWS V14.01,2013-02-18 00:35:00,
2013-02-17 16:40:00,45.9,37.8,30.16,ESE,117,0.0,3.0,73,0.00,,---,0.03,VWS V14.01,2013-02-18 00:40:00,
2013-02-17 16:45:00,45.9,38.1,30.16,SSE,157,0.0,3.0,74,0.00,,---,0.03,VWS V14.01,2013-02-18 00:45:00,
2013-02-17 16:50:00,45.8,38.0,30.16,SSW,206,0.0,3.0,74,0.00,,---,0.03,VWS V14.01,2013-02-18 00:50:00,
2013-02-17 16:55:00,45.6,38.2,30.16,SW,221,0.0,3.0,75,0.00,,---,0.03,VWS V14.01,2013-02-18 00:55:00,
2013-02-17 17:00:00,45.5,38.0,30.16,SW,219,0.0,3.0,75,0.00,,---,0.03,VWS V14.01,2013-02-18 01:00:00,
2013-02-17 17:05:00,45.3,37.9,30.16,SW,220,0.0,2.0,75,0.00,,---,0.03,VWS V14.01,2013-02-18 01:05:00,
2013-02-17 17:10:00,45.1,37.7,30.16,SW,220,0.0,2.0,75,0.00,,---,0.03,VWS V14.01,2013-02-18 01:10:00,
2013-02-17 17:15:00,45.0,37.6,30.16,SW,220,0.0,2.0,75,0.00,,---,0.03,VWS V14.01,2013-02-18 01:15:00,
2013-02-17 17:20:00,44.9,38.1,30.15,SW,221,0.0,2.0,77,0.00,,---,0.03,VWS V14.01,2013-02-18 01:20:00,
2013-02-17 17:25:00,44.6,37.2,30.15,SW,221,0.0,2.0,75,0.00,,---,0.03,VWS V14.01,2013-02-18 01:25:00,
2013-02-17 17:31:00,44.4,37.3,30.15,SW,220,0.0,0.0,76,0.00,,---,0.03,VWS V14.01,2013-02-18 01:31:00,
2013-02-17 17:36:00,44.1,37.0,30.15,SW,221,0.0,0.0,76,0.00,,---,0.03,VWS V14.01,2013-02-18 01:36:00,
2013-02-17 17:41:00,43.9,37.5,30.15,SW,219,0.0,0.0,78,0.00,,---,0.03,VWS V14.01,2013-02-18 01:41:00,
2013-02-17 17:46:00,43.6,37.2,30.15,SW,220,0.0,0.0,78,0.00,,---,0.03,VWS V14.01,2013-02-18 01:46:00,
2013-02-17 17:51:00,43.6,37.5,30.15,SW,219,0.0,0.0,79,0.00,,---,0.03,VWS V14.01,2013-02-18 01:51:00,
2013-02-17 17:56:00,43.4,37.3,30.15,SW,221,0.0,0.0,79,0.00,,---,0.03,VWS V14.01,2013-02-18 01:56:00,
2013-02-17 18:01:00,43.3,37.6,30.15,SW,220,0.0,0.0,80,0.00,,---,0.03,VWS V14.01,2013-02-18 02:01:00,
2013-02-17 18:06:00,43.2,37.8,30.15,East,86,0.0,2.0,81,0.00,,---,0.03,VWS V14.01,2013-02-18 02:06:00,
2013-02-17 18:11:00,43.2,38.1,30.15,East,86,0.0,2.0,82,0.00,,---,0.03,VWS V14.01,2013-02-18 02:11:00,
2013-02-17 18:16:00,43.1,38.0,30.15,East,86,0.0,2.0,82,0.00,,---,0.03,VWS V14.01,2013-02-18 02:16:00,
2013-02-17 18:21:00,43.0,37.9,30.15,East,86,0.0,2.0,82,0.00,,---,0.03,VWS V14.01,2013-02-18 02:21:00,
2013-02-17 18:26:00,43.0,37.9,30.14,East,86,0.0,2.0,82,0.00,,---,0.03,VWS V14.01,2013-02-18 02:26:00,
2013-02-17 18:31:00,43.0,37.9,30.14,East,86,0.0,0.0,82,0.00,,---,0.03,VWS V14.01,2013-02-18 02:31:00,
2013-02-17 18:36:00,43.0,37.9,30.14,East,86,0.0,0.0,82,0.00,,---,0.03,VWS V14.01,2013-02-18 02:36:00,
2013-02-17 18:41:00,43.1,38.0,30.14,East,86,0.0,0.0,82,0.00,,---,0.03,VWS V14.01,2013-02-18 02:41:00,
2013-02-17 18:46:00,43.1,38.0,30.14,East,86,0.0,0.0,82,0.00,,---,0.03,VWS V14.01,2013-02-18 02:46:00,
2013-02-17 18:51:00,43.1,38.3,30.15,East,86,0.0,0.0,83,0.00,,---,0.03,VWS V14.01,2013-02-18 02:51:00,
2013-02-17 18:57:00,42.7,37.9,30.15,East,86,0.0,0.0,83,0.00,,---,0.03,VWS V14.01,2013-02-18 02:57:00,
2013-02-17 19:02:00,42.5,38.0,30.15,East,86,0.0,0.0,84,0.00,,---,0.03,VWS V14.01,2013-02-18 03:02:00,
2013-02-17 19:07:00,42.3,37.8,30.15,East,86,0.0,0.0,84,0.00,,---,0.03,VWS V14.01,2013-02-18 03:07:00,
2013-02-17 19:12:00,42.0,37.8,30.14,East,86,0.0,0.0,85,0.00,,---,0.03,VWS V14.01,2013-02-18 03:12:00,
2013-02-17 19:17:00,42.0,37.8,30.14,East,86,0.0,0.0,85,0.00,,---,0.03,VWS V14.01,2013-02-18 03:17:00,
2013-02-17 19:22:00,42.1,37.6,30.15,East,86,0.0,0.0,84,0.00,,---,0.03,VWS V14.01,2013-02-18 03:22:00,
2013-02-17 19:27:00,42.3,37.8,30.14,SE,124,0.0,1.0,84,0.00,,---,0.03,VWS V14.01,2013-02-18 03:27:00,
2013-02-17 19:32:00,42.5,37.7,30.15,SSE,154,0.0,0.0,83,0.00,,---,0.03,VWS V14.01,2013-02-18 03:32:00,
2013-02-17 19:37:00,42.6,37.8,30.15,SSE,154,0.0,0.0,83,0.00,,---,0.03,VWS V14.01,2013-02-18 03:37:00,
2013-02-17 19:42:00,42.6,37.8,30.14,SSE,153,0.0,0.0,83,0.00,,---,0.03,VWS V14.01,2013-02-18 03:42:00,
2013-02-17 19:47:00,42.7,37.9,30.14,South,182,1.0,4.0,83,0.00,,---,0.03,VWS V14.01,2013-02-18 03:47:00,
2013-02-17 19:52:00,43.0,38.2,30.14,South,182,0.0,4.0,83,0.00,,---,0.03,VWS V14.01,2013-02-18 03:52:00,
2013-02-17 19:57:00,43.2,38.4,30.14,SSE,160,0.0,4.0,83,0.00,,---,0.03,VWS V14.01,2013-02-18 03:57:00,
2013-02-17 20:03:00,43.3,38.5,30.15,South,175,0.0,4.0,83,0.00,,---,0.03,VWS V14.01,2013-02-18 04:03:00,
2013-02-17 20:08:00,43.3,38.5,30.14,SSE,165,0.0,4.0,83,0.00,,---,0.03,VWS V14.01,2013-02-18 04:08:00,
2013-02-17 20:13:00,43.2,38.4,30.14,SSE,166,0.0,4.0,83,0.00,,---,0.03,VWS V14.01,2013-02-18 04:13:00,
2013-02-17 20:18:00,43.1,38.3,30.14,SE,145,0.0,4.0,83,0.00,,---,0.03,VWS V14.01,2013-02-18 04:18:00,
2013-02-17 20:23:00,43.1,38.3,30.14,SE,126,0.0,4.0,83,0.00,,---,0.03,VWS V14.01,2013-02-18 04:23:00,
2013-02-17 20:28:00,43.0,38.5,30.14,ESE,114,0.0,4.0,84,0.00,,---,0.03,VWS V14.01,2013-02-18 04:28:00,
2013-02-17 20:33:00,43.0,38.5,30.14,ESE,114,0.0,1.0,84,0.00,,---,0.03,VWS V14.01,2013-02-18 04:33:00,
2013-02-17 20:38:00,42.9,38.7,30.14,SE,143,0.0,3.0,85,0.00,,---,0.03,VWS V14.01,2013-02-18 04:38:00,
2013-02-17 20:43:00,42.9,39.0,30.14,SE,143,0.0,3.0,86,0.00,,---,0.03,VWS V14.01,2013-02-18 04:43:00,
2013-02-17 20:48:00,42.8,38.9,30.14,SE,142,0.0,3.0,86,0.00,,---,0.03,VWS V14.01,2013-02-18 04:48:00,
2013-02-17 20:53:00,42.8,38.9,30.14,SE,142,0.0,3.0,86,0.00,,---,0.03,VWS V14.01,2013-02-18 04:53:00,
2013-02-17 20:58:00,42.7,39.1,30.14,SE,142,0.0,3.0,87,0.00,,---,0.03,VWS V14.01,2013-02-18 04:58:00,
2013-02-17 21:00:00,42.7,39.1,30.14,SE,142,0.0,3.0,87,0.00,,---,0.03,VWS V14.01,2013-02-18 05:00:00,
2013-02-17 21:05:00,42.6,39.0,30.14,SE,143,0.0,0.0,87,0.00,,---,0.03,VWS V14.01,2013-02-18 05:05:00,
2013-02-17 21:11:00,42.6,39.0,30.14,SE,143,0.0,2.0,87,0.00,,---,0.03,VWS V14.01,2013-02-18 05:11:00,
2013-02-17 21:16:00,42.7,39.1,30.14,SE,143,0.0,2.0,87,0.00,,---,0.03,VWS V14.01,2013-02-18 05:16:00,
2013-02-17 21:21:00,42.7,39.1,30.14,SE,143,0.0,2.0,87,0.00,,---,0.03,VWS V14.01,2013-02-18 05:21:00,
2013-02-17 21:26:00,42.7,39.1,30.14,SE,143,0.0,2.0,87,0.00,,---,0.03,VWS V14.01,2013-02-18 05:26:00,
2013-02-17 21:31:00,42.7,39.1,30.14,SE,143,0.0,0.0,87,0.00,,---,0.03,VWS V14.01,2013-02-18 05:31:00,
2013-02-17 21:36:00,42.7,39.1,30.14,SE,143,0.0,0.0,87,0.00,,---,0.03,VWS V14.01,2013-02-18 05:36:00,
2013-02-17 21:41:00,42.6,39.0,30.14,SW,215,0.0,2.0,87,0.00,,---,0.03,VWS V14.01,2013-02-18 05:41:00,
2013-02-17 21:46:00,42.5,38.9,30.13,SW,214,0.0,2.0,87,0.00,,---,0.03,VWS V14.01,2013-02-18 05:46:00,
2013-02-17 21:51:00,42.5,38.9,30.13,SW,215,0.0,2.0,87,0.00,,---,0.03,VWS V14.01,2013-02-18 05:51:00,
2013-02-17 21:56:00,42.4,40.2,30.13,SW,215,0.0,2.0,92,0.00,,---,0.03,VWS V14.01,2013-02-18 05:56:00,
2013-02-17 22:01:00,42.3,38.7,30.13,SW,214,0.0,0.0,87,0.00,,---,0.03,VWS V14.01,2013-02-18 06:01:00,
2013-02-17 22:06:00,42.2,38.6,30.13,SW,214,0.0,0.0,87,0.00,,---,0.03,VWS V14.01,2013-02-18 06:06:00,
2013-02-17 22:11:00,42.0,38.7,30.13,SW,215,0.0,0.0,88,0.00,,---,0.03,VWS V14.01,2013-02-18 06:11:00,
2013-02-17 22:16:00,41.9,38.6,30.13,SW,214,0.0,0.0,88,0.00,,---,0.03,VWS V14.01,2013-02-18 06:16:00,
2013-02-17 22:21:00,41.9,38.9,30.13,SW,214,0.0,0.0,89,0.00,,---,0.03,VWS V14.01,2013-02-18 06:21:00,
2013-02-17 22:26:00,41.8,38.8,30.13,SW,215,0.0,0.0,89,0.00,,---,0.03,VWS V14.01,2013-02-18 06:26:00,
2013-02-17 22:31:00,41.8,38.8,30.12,SW,214,0.0,0.0,89,0.00,,---,0.03,VWS V14.01,2013-02-18 06:31:00,
2013-02-17 22:36:00,41.8,38.8,30.12,SW,215,0.0,0.0,89,0.00,,---,0.03,VWS V14.01,2013-02-18 06:36:00,
2013-02-17 22:41:00,41.8,38.8,30.12,SW,214,0.0,0.0,89,0.00,,---,0.03,VWS V14.01,2013-02-18 06:41:00,
2013-02-17 22:47:00,41.9,38.9,30.12,SW,214,0.0,0.0,89,0.00,,---,0.03,VWS V14.01,2013-02-18 06:47:00,
2013-02-17 22:52:00,41.9,38.9,30.12,SW,215,0.0,0.0,89,0.00,,---,0.03,VWS V14.01,2013-02-18 06:52:00,
2013-02-17 22:57:00,41.9,38.9,30.12,ESE,103,0.0,2.0,89,0.00,,---,0.03,VWS V14.01,2013-02-18 06:57:00,
2013-02-17 23:02:00,41.9,38.9,30.11,ESE,111,0.0,3.0,89,0.00,,---,0.03,VWS V14.01,2013-02-18 07:02:00,
2013-02-17 23:07:00,41.9,38.9,30.11,SE,140,0.0,3.0,89,0.00,,---,0.03,VWS V14.01,2013-02-18 07:07:00,
2013-02-17 23:12:00,42.0,39.0,30.11,SE,140,0.0,3.0,89,0.00,,---,0.03,VWS V14.01,2013-02-18 07:12:00,
2013-02-17 23:17:00,42.0,39.0,30.11,SE,140,0.0,3.0,89,0.00,,---,0.03,VWS V14.01,2013-02-18 07:17:00,
2013-02-17 23:22:00,41.9,38.9,30.11,SE,140,0.0,3.0,89,0.00,,---,0.03,VWS V14.01,2013-02-18 07:22:00,
2013-02-17 23:27:00,41.9,38.9,30.11,SE,140,0.0,3.0,89,0.00,,---,0.03,VWS V14.01,2013-02-18 07:27:00,
2013-02-17 23:32:00,41.8,38.8,30.11,SE,140,0.0,1.0,89,0.00,,---,0.03,VWS V14.01,2013-02-18 07:32:00,
2013-02-17 23:37:00,41.7,38.7,30.10,SE,140,0.0,2.0,89,0.00,,---,0.03,VWS V14.01,2013-02-18 07:37:00,
2013-02-17 23:42:00,41.6,38.6,30.10,SE,140,1.0,2.0,89,0.00,,---,0.03,VWS V14.01,2013-02-18 07:42:00,
2013-02-17 23:47:00,41.6,38.6,30.10,SE,140,0.0,2.0,89,0.00,,---,0.03,VWS V14.01,2013-02-18 07:47:00,
2013-02-17 23:52:00,41.5,38.5,30.10,ESE,107,2.0,3.0,89,0.00,,---,0.03,VWS V14.01,2013-02-18 07:52:00,
2013-02-17 23:57:00,41.5,38.8,30.10,ESE,107,0.0,3.0,90,0.00,,---,0.03,VWS V14.01,2013-02-18 07:57:00,